�������l�o���
Date,Time,MP-1(��Sv/h),MP-2(��Sv/h),MP-3(��Sv/h),MP-4(��Sv/h),MP-5(��Sv/h),MP-6(��Sv/h),MP-7(��Sv/h),MP-8(��Sv/h),����,����(m/s),���J
2021/07/08,00:00,0.589,0.860,0.557,1.047,0.736,0.362,0.622,0.581,�k,2.0,��
2021/07/08,00:10,0.587,0.860,0.557,1.049,0.736,0.361,0.619,0.582,�k,2.6,��
2021/07/08,00:20,0.586,0.860,0.557,1.049,0.737,0.362,0.621,0.583,�k,3.2,��
2021/07/08,00:30,0.586,0.858,0.557,1.050,0.738,0.363,0.621,0.582,�k,2.8,��
2021/07/08,00:40,0.586,0.861,0.557,1.049,0.736,0.361,0.620,0.583,�k,2.6,��
2021/07/08,00:50,0.585,0.861,0.557,1.047,0.736,0.362,0.621,0.584,�k,2.3,��
2021/07/08,01:00,0.586,0.859,0.556,1.049,0.736,0.361,0.622,0.581,�k,1.4,��
2021/07/08,01:10,0.586,0.858,0.557,1.048,0.736,0.361,0.621,0.582,�k,1.5,��
2021/07/08,01:20,0.586,0.860,0.558,1.048,0.737,0.361,0.621,0.581,�k,1.2,��
2021/07/08,01:30,0.587,0.859,0.558,1.050,0.736,0.361,0.622,0.583,�k,1.4,��
2021/07/08,01:40,0.588,0.858,0.555,1.048,0.737,0.362,0.622,0.581,�k,1.7,��
2021/07/08,01:50,0.587,0.861,0.558,1.049,0.737,0.361,0.621,0.583,�k,1.2,��
2021/07/08,02:00,0.587,0.858,0.558,1.050,0.738,0.361,0.622,0.582,�k,1.5,��
2021/07/08,02:10,0.586,0.857,0.558,1.049,0.739,0.362,0.622,0.584,�k,1.7,��
2021/07/08,02:20,0.586,0.858,0.557,1.049,0.740,0.361,0.622,0.584,�k,1.4,��
2021/07/08,02:30,0.586,0.858,0.556,1.052,0.739,0.362,0.622,0.584,�k,1.4,�L
2021/07/08,02:40,0.586,0.859,0.556,1.050,0.739,0.363,0.623,0.583,�k,1.7,�L
2021/07/08,02:50,0.586,0.860,0.557,1.051,0.740,0.362,0.622,0.582,�k�k��,1.7,�L
2021/07/08,03:00,0.585,0.858,0.556,1.049,0.738,0.363,0.622,0.583,�k,1.2,�L
2021/07/08,03:10,0.583,0.859,0.559,1.051,0.739,0.362,0.621,0.582,�k�k��,1.5,�L
2021/07/08,03:20,0.586,0.858,0.558,1.051,0.738,0.363,0.622,0.582,�k�k��,1.4,��
2021/07/08,03:30,0.586,0.859,0.558,1.046,0.737,0.363,0.622,0.583,�k�k��,1.5,�L
2021/07/08,03:40,0.587,0.859,0.558,1.047,0.740,0.363,0.620,0.582,�k�k��,1.4,�L
2021/07/08,03:50,0.586,0.858,0.556,1.047,0.738,0.361,0.621,0.582,�k�k��,1.9,��
2021/07/08,04:00,0.586,0.856,0.556,1.048,0.738,0.362,0.621,0.581,�k�k��,1.5,�L
2021/07/08,04:10,0.585,0.858,0.557,1.049,0.736,0.361,0.622,0.583,�k�k��,1.4,�L
2021/07/08,04:20,0.587,0.855,0.557,1.047,0.738,0.362,0.621,0.581,�k�k��,1.9,��
2021/07/08,04:30,0.587,0.858,0.557,1.047,0.738,0.363,0.622,0.582,�k�k��,2.0,��
2021/07/08,04:40,0.588,0.858,0.557,1.045,0.737,0.362,0.619,0.583,�k,2.2,�L
2021/07/08,04:50,0.587,0.858,0.556,1.048,0.737,0.360,0.619,0.581,�k,2.0,��
2021/07/08,05:00,0.586,0.858,0.557,1.047,0.737,0.361,0.621,0.582,�k,2.3,��
2021/07/08,05:10,0.586,0.857,0.557,1.047,0.737,0.360,0.622,0.582,�k,2.3,��
2021/07/08,05:20,0.585,0.858,0.555,1.049,0.737,0.361,0.621,0.581,�k,2.8,�L
2021/07/08,05:30,0.585,0.856,0.557,1.048,0.739,0.362,0.621,0.582,�k,2.8,��
2021/07/08,05:40,0.584,0.856,0.556,1.047,0.736,0.361,0.620,0.582,�k,2.9,��
2021/07/08,05:50,0.585,0.858,0.556,1.046,0.740,0.360,0.621,0.582,�k,2.6,��
2021/07/08,06:00,0.582,0.855,0.557,1.046,0.737,0.359,0.621,0.583,�k�k��,3.0,��
2021/07/08,06:10,0.585,0.856,0.557,1.045,0.737,0.360,0.621,0.581,�k�k��,3.1,��
2021/07/08,06:20,0.584,0.860,0.555,1.047,0.738,0.360,0.621,0.582,�k,3.1,��
2021/07/08,06:30,0.584,0.857,0.555,1.048,0.737,0.361,0.621,0.582,�k,2.3,��
2021/07/08,06:40,0.584,0.855,0.556,1.049,0.737,0.359,0.622,0.582,�k,2.2,��
2021/07/08,06:50,0.584,0.858,0.555,1.045,0.737,0.359,0.620,0.582,�k,2.3,��
2021/07/08,07:00,0.586,0.857,0.558,1.049,0.738,0.360,0.622,0.581,�k,2.2,��
2021/07/08,07:10,0.584,0.855,0.554,1.049,0.736,0.359,0.622,0.581,�k�k��,1.9,��
2021/07/08,07:20,0.585,0.856,0.555,1.046,0.736,0.359,0.621,0.583,�k�k��,2.3,��
2021/07/08,07:30,0.583,0.857,0.554,1.047,0.738,0.360,0.621,0.582,�k,2.6,��
2021/07/08,07:40,0.585,0.856,0.554,1.048,0.737,0.360,0.620,0.582,�k�k��,1.5,��
2021/07/08,07:50,0.584,0.856,0.556,1.046,0.737,0.360,0.621,0.582,�k�k��,1.7,��
2021/07/08,08:00,0.583,0.857,0.556,1.047,0.736,0.360,0.620,0.583,�k,1.7,��
2021/07/08,08:10,0.584,0.855,0.556,1.047,0.737,0.359,0.619,0.581,�k�k��,1.5,��
2021/07/08,08:20,0.585,0.856,0.553,1.048,0.738,0.359,0.620,0.582,�k,1.7,�L
2021/07/08,08:30,0.583,0.856,0.555,1.048,0.737,0.360,0.621,0.583,�k,2.0,�L
2021/07/08,08:40,0.584,0.854,0.554,1.049,0.739,0.361,0.622,0.582,�k�k��,2.0,��
2021/07/08,08:50,0.586,0.858,0.555,1.049,0.738,0.362,0.621,0.581,�k�k��,2.3,��
2021/07/08,09:00,0.584,0.855,0.556,1.048,0.739,0.361,0.621,0.583,�k�k��,2.0,��
2021/07/08,09:10,0.585,0.858,0.554,1.048,0.740,0.361,0.621,0.582,�k�k��,1.7,��
2021/07/08,09:20,0.585,0.858,0.558,1.047,0.738,0.361,0.620,0.581,�k�k��,2.0,�L
2021/07/08,09:30,0.584,0.858,0.558,1.046,0.739,0.360,0.621,0.583,�k�k��,2.2,�L
2021/07/08,09:40,0.584,0.855,0.557,1.048,0.739,0.362,0.621,0.583,�k�k��,2.8,�L
2021/07/08,09:50,0.585,0.857,0.557,1.050,0.740,0.362,0.621,0.582,�k��,2.5,��
2021/07/08,10:00,0.584,0.857,0.557,1.050,0.738,0.361,0.623,0.582,�k�k��,2.2,��
2021/07/08,10:10,0.585,0.856,0.557,1.050,0.740,0.360,0.623,0.584,�k�k��,2.3,��
2021/07/08,10:20,0.585,0.854,0.556,1.049,0.739,0.361,0.621,0.583,�k�k��,1.9,��
2021/07/08,10:30,0.584,0.856,0.556,1.050,0.739,0.359,0.622,0.582,�k,1.7,��
2021/07/08,10:40,0.582,0.855,0.556,1.049,0.738,0.360,0.621,0.583,�k,2.0,��
2021/07/08,10:50,0.584,0.856,0.556,1.051,0.741,0.359,0.623,0.582,�k�k��,2.0,��
2021/07/08,11:00,0.586,0.854,0.556,1.049,0.740,0.359,0.621,0.581,�k��,2.0,��
2021/07/08,11:10,0.584,0.858,0.555,1.046,0.741,0.360,0.622,0.581,�k�k��,2.3,��
2021/07/08,11:20,0.584,0.857,0.555,1.046,0.740,0.359,0.621,0.583,�k�k��,2.0,��
2021/07/08,11:30,0.585,0.858,0.556,1.047,0.742,0.361,0.622,0.582,�k�k��,2.0,��
2021/07/08,11:40,0.584,0.860,0.558,1.051,0.735,0.362,0.622,0.583,�k�k��,2.2,��
2021/07/08,11:50,0.588,0.858,0.556,1.049,0.733,0.359,0.623,0.583,�k��,2.0,��
2021/07/08,12:00,0.585,0.858,0.555,1.048,0.741,0.359,0.623,0.581,�k��,2.0,��
2021/07/08,12:10,0.587,0.858,0.556,1.049,0.738,0.361,0.622,0.582,�k�k��,2.3,��
2021/07/08,12:20,0.588,0.859,0.555,1.048,0.740,0.360,0.622,0.583,�k�k��,2.3,��
2021/07/08,12:30,0.588,0.858,0.556,1.051,0.740,0.360,0.624,0.585,�k�k��,2.2,��
2021/07/08,12:40,0.589,0.860,0.556,1.051,0.740,0.357,0.623,0.583,�k��,1.7,��
2021/07/08,12:50,0.588,0.859,0.556,1.050,0.741,0.360,0.624,0.581,�k�k��,1.7,��
2021/07/08,13:00,0.588,0.858,0.556,1.051,0.741,0.360,0.624,0.583,�k�k��,1.7,��
2021/07/08,13:10,0.588,0.859,0.557,1.050,0.742,0.361,0.624,0.585,�k�k��,2.0,��
2021/07/08,13:20,0.588,0.860,0.556,1.050,0.742,0.362,0.623,0.583,�k�k��,1.9,��
2021/07/08,13:30,0.588,0.861,0.556,1.050,0.741,0.361,0.626,0.582,�k,2.3,��
2021/07/08,13:40,0.589,0.862,0.555,1.051,0.742,0.360,0.624,0.582,�k�k��,2.6,��
2021/07/08,13:50,0.588,0.860,0.555,1.049,0.743,0.361,0.625,0.583,�k,2.3,��
2021/07/08,14:00,0.588,0.861,0.559,1.050,0.744,0.361,0.624,0.584,�k�k��,2.3,��
2021/07/08,14:10,0.587,0.861,0.559,1.051,0.742,0.361,0.625,0.583,�k�k��,2.5,��
2021/07/08,14:20,0.588,0.861,0.559,1.050,0.743,0.362,0.623,0.584,�k�k��,2.3,��
2021/07/08,14:30,0.589,0.861,0.557,1.053,0.742,0.361,0.624,0.583,�k�k��,3.4,��
2021/07/08,14:40,0.589,0.864,0.556,1.052,0.743,0.362,0.625,0.583,�k�k��,3.4,��
2021/07/08,14:50,0.588,0.861,0.555,1.053,0.743,0.362,0.624,0.583,�k��,3.3,��
2021/07/08,15:00,0.589,0.864,0.557,1.053,0.742,0.360,0.624,0.584,�k�k��,3.0,��
2021/07/08,15:10,0.589,0.864,0.557,1.051,0.743,0.362,0.627,0.582,�k�k��,3.5,��
2021/07/08,15:20,0.590,0.864,0.558,1.053,0.745,0.360,0.624,0.584,�k�k��,3.3,��
2021/07/08,15:30,0.588,0.864,0.556,1.054,0.743,0.361,0.625,0.584,�k��,2.9,��
2021/07/08,15:40,0.590,0.865,0.557,1.052,0.744,0.362,0.625,0.582,���k��,2.0,��
2021/07/08,15:50,0.590,0.864,0.560,1.053,0.743,0.361,0.625,0.584,�k��,2.5,��
2021/07/08,16:00,0.590,0.864,0.557,1.054,0.744,0.361,0.624,0.583,�k��,2.6,��
2021/07/08,16:10,0.590,0.863,0.559,1.054,0.743,0.362,0.625,0.584,�k�k��,2.6,��
2021/07/08,16:20,0.591,0.866,0.558,1.054,0.744,0.361,0.626,0.583,�k,2.8,��
2021/07/08,16:30,0.589,0.866,0.559,1.056,0.744,0.362,0.626,0.585,�k�k��,2.5,��
2021/07/08,16:40,0.589,0.866,0.559,1.053,0.745,0.360,0.624,0.583,�k�k��,2.6,��
2021/07/08,16:50,0.589,0.864,0.558,1.053,0.744,0.361,0.626,0.584,�k�k��,1.9,��
2021/07/08,17:00,0.589,0.865,0.559,1.053,0.744,0.361,0.626,0.583,�k��,2.0,��
2021/07/08,17:10,0.589,0.865,0.558,1.054,0.744,0.362,0.626,0.584,�k��,2.3,��
2021/07/08,17:20,0.589,0.865,0.559,1.055,0.744,0.361,0.625,0.584,�k��,2.0,��
2021/07/08,17:30,0.589,0.867,0.560,1.053,0.745,0.362,0.625,0.583,�k��,1.5,��
2021/07/08,17:40,0.589,0.866,0.558,1.055,0.746,0.363,0.624,0.584,�k��,1.9,��
2021/07/08,17:50,0.590,0.868,0.559,1.053,0.747,0.361,0.623,0.584,�k�k��,1.5,��
2021/07/08,18:00,0.589,0.868,0.561,1.057,0.747,0.362,0.625,0.584,���k��,1.2,��
2021/07/08,18:10,0.588,0.868,0.562,1.055,0.747,0.363,0.626,0.585,�k��,1.1,��
2021/07/08,18:20,0.589,0.867,0.561,1.054,0.747,0.362,0.624,0.587,�k,1.4,��
2021/07/08,18:30,0.589,0.870,0.563,1.055,0.747,0.362,0.626,0.587,�k�k��,1.2,��
2021/07/08,18:40,0.588,0.869,0.560,1.053,0.747,0.363,0.625,0.585,�k�k��,0.9,��
2021/07/08,18:50,0.589,0.870,0.561,1.056,0.745,0.362,0.626,0.584,�k�k��,1.2,��
2021/07/08,19:00,0.592,0.870,0.561,1.058,0.747,0.362,0.628,0.586,�k�k��,1.2,��
2021/07/08,19:10,0.590,0.869,0.562,1.054,0.747,0.362,0.626,0.585,�k,1.7,��
2021/07/08,19:20,0.593,0.871,0.562,1.055,0.746,0.362,0.627,0.586,�k,2.3,��
2021/07/08,19:30,0.593,0.869,0.561,1.056,0.748,0.363,0.627,0.584,�k,2.5,��
2021/07/08,19:40,0.593,0.869,0.562,1.057,0.748,0.362,0.625,0.586,�k�k��,2.6,��
2021/07/08,19:50,0.593,0.870,0.561,1.057,0.748,0.362,0.627,0.585,�k,3.3,�L
2021/07/08,20:00,0.593,0.871,0.560,1.055,0.749,0.363,0.626,0.587,�k�k��,2.8,��
2021/07/08,20:10,0.590,0.868,0.563,1.058,0.748,0.363,0.626,0.584,�k��,2.6,��
2021/07/08,20:20,0.588,0.871,0.562,1.056,0.748,0.362,0.625,0.586,�k�k��,2.6,��
2021/07/08,20:30,0.590,0.870,0.562,1.057,0.747,0.363,0.626,0.586,�k�k��,2.3,��
2021/07/08,20:40,0.590,0.870,0.562,1.057,0.748,0.362,0.626,0.586,�k�k��,1.5,��
2021/07/08,20:50,0.589,0.868,0.561,1.056,0.749,0.363,0.627,0.588,�k�k��,1.2,��
2021/07/08,21:00,0.591,0.871,0.563,1.057,0.749,0.362,0.626,0.587,�k,1.4,��
2021/07/08,21:10,0.592,0.871,0.561,1.056,0.749,0.365,0.626,0.586,�k,1.2,��
2021/07/08,21:20,0.591,0.868,0.564,1.058,0.748,0.364,0.627,0.587,�k,1.2,��
2021/07/08,21:30,0.592,0.872,0.563,1.057,0.749,0.363,0.627,0.586,�k�k��,1.4,��
2021/07/08,21:40,0.593,0.869,0.561,1.054,0.749,0.363,0.626,0.587,�k�k��,2.0,��
2021/07/08,21:50,0.591,0.872,0.562,1.055,0.749,0.363,0.626,0.586,�k�k��,1.5,��
2021/07/08,22:00,0.592,0.872,0.561,1.057,0.749,0.364,0.626,0.585,�k�k��,1.7,�L
2021/07/08,22:10,0.592,0.871,0.563,1.057,0.749,0.363,0.627,0.586,�k�k��,1.9,�L
2021/07/08,22:20,0.591,0.871,0.563,1.058,0.749,0.362,0.625,0.587,�k,1.9,�L
2021/07/08,22:30,0.591,0.869,0.563,1.056,0.751,0.364,0.627,0.586,�k,1.5,�L
2021/07/08,22:40,0.592,0.870,0.562,1.055,0.748,0.363,0.625,0.587,�k�k��,1.5,�L
2021/07/08,22:50,0.591,0.869,0.560,1.056,0.749,0.362,0.627,0.585,�k�k��,1.7,�L
2021/07/08,23:00,0.590,0.867,0.561,1.056,0.746,0.365,0.623,0.583,�k�k��,2.0,�L
2021/07/08,23:10,0.590,0.864,0.559,1.054,0.745,0.362,0.623,0.584,�k�k��,3.5,�L
2021/07/08,23:20,0.589,0.862,0.560,1.053,0.744,0.362,0.622,0.583,�k�k��,3.2,�L
2021/07/08,23:30,0.587,0.858,0.557,1.053,0.745,0.362,0.622,0.582,�k�k��,3.0,�L
2021/07/08,23:40,0.587,0.862,0.556,1.051,0.744,0.362,0.624,0.585,�k�k��,2.6,�L
2021/07/08,23:50,0.589,0.859,0.558,1.052,0.744,0.362,0.621,0.583,�k�k��,2.6,�L
